Powrót do katalogu

COSMOS 508

AktywnyNawigacjaLEO
NORAD 6121·PAYLOAD·🇷🇺 Russia

Wystrzelony Jul 20, 1972 z Plesetsk Cosmodrome

Loading…

Następne Przeloty (najbliższe 24 godziny)

TLE

ŚwieżeSource: Space-Track

Epoka: Sep 14, 2026, 06:48 UTC

1 06121U 72057E   26257.28384110 -.00000021  00000-0 -35536-4 0  9991
2 06121  74.0242 273.1382 0034528 321.0290  50.9193 12.48903476468825

Śledź COSMOS 508 w czasie rzeczywistym z AllMySat

Download on the App Store